{"data":{"norad_id":47997,"epoch":"2026-09-20T02:21:41.815296Z","epoch_age_seconds":64562,"freshness":"FRESH","line1":"1 47997U 21024W   26263.09840064  .00008651  00000+0  28992-3 0  9997","line2":"2 47997  53.1572 122.0254 0001204  92.7712 267.3427 15.31732569304776","mean_motion":15.31732569,"eccentricity":0.0001204,"inclination_deg":53.1572,"raan_deg":122.0254,"arg_perigee_deg":92.7712,"mean_anomaly_deg":267.3427,"bstar":0.00028992,"rev_number":30477,"period_min":94.011188972766,"perigee_km":469.81831735047,"apogee_km":471.4675035529,"semimajor_km":6848.7799104517,"source":"CELESTRAK","updated_at":"2026-09-20T09:00:38.759302Z"}}